Regional Weather Roundup
Issued by NWS Cleveland, OH

Home | Current Version | Previous Version | Graphics & Text | Print | Product List | Glossary On
Versions: 1 2 3 4 5 6 7 8 9 10 11 12 13 14 15 16 17 18 19 20 21 22 23 24 25 26 27 28 29 30 31 32 33 34 35 36 37 38 39 40 41 42 43 44 45 46 47 48 49 50
208
ASUS41 KCLE 261710
RWRCLE
OHIO REGIONAL WEATHER ROUNDUP
NATIONAL WEATHER SERVICE WILMINGTON, OH
100 PM EDT THU MAY 26 2016

NOTE: "FAIR" INDICATES FEW OR NO CLOUDS BELOW 12,000 FEET WITH NO
SIGNIFICANT WEATHER AND/OR OBSTRUCTIONS TO VISIBILITY.

OHZ001>008-015>018-024>027-034-035-043-044-261800-
   NORTHWEST OHIO

CITY           SKY/WX    TMP DP  RH WIND       PRES   REMARKS
DEFIANCE       PTSUNNY   83  63  50 SW15G21   30.00R
FINDLAY        PTSUNNY   82  62  50 SW13G21   30.00F
TOLEDO EXPRESS FAIR      81  63  54 S10       29.98F
TOLEDO EXEC    PTSUNNY   82  63  52 S16       29.99F
LIMA           FAIR      80  64  58 SW12      30.02S
$$

OHZ009>014-019>023-028>033-038-089-261800-
   NORTHEAST OHIO

CITY           SKY/WX    TMP DP  RH WIND       PRES   REMARKS
CLE-HOPKINS    PTSUNNY   80  64  58 S16G23    30.04S
CLE-LAKEFRONT  FAIR      82  64  54 S16       29.99F
CUY CO. ARPT   PTSUNNY   84  68  58 S17       30.02F
LORAIN-ELYRIA  FAIR      79  63  57 SW18      30.02F
ASHTABULA      FAIR      81  62  52 S13G23    30.02F
AKRON-CANTON   CLOUDY    77  62  59 SW16      30.06F
WOOSTER        FAIR      78  63  59 SW15      30.06F
MANSFIELD      FAIR      79  63  57 SW14G23   30.05F
YOUNGSTOWN     CLOUDY    79  61  53 S13G24    30.05F
$$

OHZ042-051>053-060>062-070>072-077>081-261800-
  SOUTHWEST OHIO

CITY           SKY/WX    TMP DP  RH WIND       PRES   REMARKS
CINC-COVINGTON PTSUNNY   76  66  71 S13       30.07F
CINC-LUNKEN    CLOUDY    77  66  68 SW9       30.07F
HAMILTON       PTSUNNY   79  65  62 SW9       30.06F
DAYTON         PTSUNNY   75  65  70 SW14      30.06F
WRIGHT-PAT AFB CLOUDY    77  67  72 SW12      30.05F
DAYTON GENERAL PTSUNNY   77  63  61 SW15      30.06F
WILMINGTON     CLOUDY    77  64  64 SW12G22   30.07S
$$

OHZ036-037-039>041-045>050-054>059-063>069-073>076-082>088-261800-
  CENTRAL AND SOUTHEAST OHIO

CITY           SKY/WX    TMP DP  RH WIND       PRES   REMARKS
COLUMBUS       PTSUNNY   78  64  61 SW14      30.05S
OSU AIRPORT    PTSUNNY   80  66  62 SW16      30.04F
BOLTON FIELD     N/A     75  66  73 SW10      30.06F
RICKENBACK AFB CLOUDY    77  65  67 SW13G21   30.06S
NEWARK         CLOUDY    81  63  54 S14       30.06R
MARION           N/A    N/A N/A N/A MISG      30.05S
LANCASTER      CLOUDY    78  65  63 SW12      30.08R
ZANESVILLE     FAIR      79  64  60 SW9G20    30.08S
NEW PHILLY     PTSUNNY   80  63  55 VRB7      30.07S
$$




USA.gov is the U.S. government's official web portal to all federal, state and local government web resources and services.